COSMOS 1375 DEB, 16385

Orbit data source: Space-Track

COSMOS 1375 DEB, 16385 is space debris in LEO originally from a launch on Sun, 06 Jun 1982 UTC launched from the Plesetsk Missile And Space Complex (PKMTR). Debris objects in space refer to the collection of defunct objects orbiting the Earth. Examples of debris include non-operational satellites, rocket bodies, and fragments generated from explosions, collisions, or faulty payload assembly.

Loading next visibility...
Identifier
16385, 1982-055Z
Orbit
LEO
Country
Flag of CISCIS
Related business
Manufacturer
Unknown
Mission
Spacecraft
Bus & Motor
Unknown
Mass
Unknown
Launch date (UTC)
1982-06-06 (44 years ago)
Launch vehicle
Unknown
Launch site
Plesetsk Missile And Space Complex (PKMTR)
Object type
Payload
Rocket body
Debris
Shape & HBR
Unknown shape, 0.1 m
Radar Cross Section
Medium (>0.1 m² and <1 m²)

Expand to show TLE details & history
Last TLE update: 2 days ago

TLE from 2 days ago
0 COSMOS 1375 DEB
1 16385U 82055Z   26171.40942553  .00000418  00000-0  42193-3 0  9997
2 16385  65.8267 156.1176 0037792 274.4988 238.6431 13.87509392 46774
Epoch: 2026-06-20T09:49Z
TLE epoch observation values (Epoch: 2026-06-20T09:49:34.365Z)
Latitude
24.71332°
Longitude
-91.75892°
Altitude
953.916 km
Speed
7.37 km/s
True Right ascension
21h 37m 02s
True Declination
24° 35' 11"
Sunlit
Object was in daylight at epoch
Visualization orbit readout
Latitude
Unknown
Longitude
Unknown
Altitude
Unknown
Speed
Unknown
Apparent Right ascension
Unknown
Apparent Declination
Unknown
Sunlit
N/A
Visualization observer readout
Local Sidereal Time
23:08:32
Azimuth
Unknown
Elevation
Unknown
Doppler factor
Unknown
Orbital elements
Apogee altitude
963.522 km
Perigee altitude
908.24 km
Semi-major axis
7,314.018 km
Eccentricity
0.00378
Inclination
65.8267°
RAAN
156.1176°
Arg. of periapsis
274.4988°
True anomaly
238.2742°
Mean anomaly
238.6431°
Eccentric anomaly
238.45856°
Mean motion
3.46984 °/min
Orbital period
103.75 mins
BSTAR
0.00042193
Loading maneuver chart data...
Computing Atmospheric mass density...
Loading historical data...
Loading historical data...
Loading historical data...
Loading historical data...
Loading historical data...
Loading historical data...
Loading historical data...

Documentation

Showing up to 5 results
|